Theta_e
342 341 341 342 342 341 340 339 338 337 335 333 332 331 330 330 330 330 329 329 330 330 331 332 331 327 327 327 334 336 338 338
341 341 341 342 342 342 341 341 340 340 340 340 340 338 335 334 333 332 332 332 333 333 333 332 332 332 330 328 328 333 336 337
339 339 339 339 339 339 339 339 339 340 340 340 341 341 341 340 339 336 335 335 335 335 335 335 333 333 333 333 329 332 333 335
343 343 343 343 342 341 340 340 340 339 339 341 343 340 337 337 341 341 339 338 338 337 335 336 337 340 339 336 336 334 332 332
344 346 346 344 343 343 343 343 341 341 341 339 338 339 341 340 340 339 338 338 339 340 339 339 339 337 336 335 337 336 334 332
337 342 343 343 341 343 339 339 336 337 339 340 340 340 340 340 341 340 339 338 338 337 338 339 340 338 336 336 336 337 336 334
335 337 339 338 338 337 336 335 331 329 331 331 332 332 332 334 333 332 333 335 336 337 337 339 338 338 339 339 338 338 337 335
325 329 329 331 331 330 329 325 320 319 317 314 316 318 318 319 320 320 319 318 321 322 325 332 336 337 337 337 337 338 337 337
316 315 317 320 319 317 314 311 311 309 307 305 305 304 304 304 304 304 305 306 308 310 313 316 321 332 334 337 336 336 337 336
309 309 309 309 308 306 305 303 302 301 300 300 300 300 299 299 298 299 300 301 302 304 308 311 316 318 315 315 325 330 335 335
306 305 304 303 303 302 301 301 301 301 301 300 300 299 299 298 298 297 297 299 300 303 310 311 314 315 317 318 314 313 314 324
304 303 303 302 302 301 301 301 300 300 300 299 299 298 298 298 298 298 297 298 301 304 309 311 312 314 315 314 316 316 311 312
304 304 303 302 301 301 300 302 300 300 299 299 298 298 299 299 300 301 300 302 302 302 307 310 311 313 313 313 312 313 316 320
304 303 302 301 301 300 301 300 300 299 298 298 300 301 301 300 301 303 302 302 303 305 307 309 310 312 313 312 314 312 317 316
303 302 302 301 301 300 300 300 299 299 298 298 301 302 302 302 300 301 301 303 304 305 307 307 308 309 311 313 313 313 313 311
303 302 302 301 301 300 300 300 300 298 299 300 301 302 302 302 302 301 302 303 303 305 306 307 307 308 309 311 312 311 312 310
302 302 305 307 301 300 300 299 298 298 299 301 301 301 301 301 301 301 301 300 301 303 304 305 306 307 307 307 307 307 308 310
304 306 303 302 302 300 300 298 298 298 299 300 301 300 300 300 300 300 299 299 299 300 300 301 302 304 305 305 305 305 306 306
303 301 301 301 300 300 299 298 298 298 298 300 300 301 301 300 299 298 298 297 297 297 298 299 301 302 302 302 303 303 304 304
302 301 302 301 300 301 299 298 297 297 297 299 300 301 300 299 299 298 298 297 297 297 298 299 299 300 300 300 300 300 301 302
Wind_Speed
17 16 16 15 13 11 9 8 7 6 7 7 7 7 8 8 8 8 8 7 7 7 7 7 8 8 9 12 14 15 11 9
17 16 15 14 14 14 13 12 10 9 8 7 7 7 8 8 9 9 10 9 9 10 10 10 10 11 11 12 14 16 14 11
16 16 16 16 17 16 15 13 13 12 10 9 7 6 5 7 8 11 11 12 12 12 13 13 13 13 15 15 15 15 16 16
10 9 10 11 10 12 13 13 11 11 12 11 8 6 6 5 6 9 11 13 14 15 15 15 16 14 14 17 16 16 18 18
7 7 6 7 10 11 11 9 9 9 9 10 11 8 6 8 4 5 7 9 11 14 14 14 17 18 19 22 18 18 18 20
4 5 6 5 9 9 9 9 9 9 7 8 8 8 7 3 4 7 7 7 8 11 15 16 18 21 23 22 23 21 20 19
10 9 9 12 12 15 16 15 13 12 11 11 10 9 8 7 6 3 2 2 4 6 8 12 15 16 19 24 28 29 25 22
15 16 16 16 18 17 17 17 17 16 15 14 12 10 8 6 3 1 2 4 5 7 9 12 12 16 19 22 23 27 29 29
17 17 17 19 20 19 19 19 17 16 15 13 12 11 10 8 8 8 8 8 7 7 9 9 10 11 12 22 24 28 30 30
20 20 20 20 20 20 18 16 16 15 14 13 13 13 12 11 10 10 10 10 10 9 9 10 9 9 13 13 12 14 25 30
21 22 21 19 17 17 17 15 15 14 13 14 15 15 14 13 11 11 12 12 11 11 10 9 10 11 11 13 16 17 17 17
20 19 17 15 14 13 12 12 14 14 16 17 17 17 16 14 12 12 12 12 10 10 9 8 9 9 13 15 14 16 18 18
15 15 12 9 8 6 10 8 11 15 17 18 18 17 15 11 9 9 11 9 9 8 8 8 8 8 11 10 13 15 9 6
13 11 10 9 9 8 5 8 7 13 18 19 19 19 18 14 10 8 11 10 9 8 5 5 6 6 6 10 4 4 1 6
12 9 8 8 8 7 6 6 10 14 20 18 17 18 17 14 10 9 10 8 8 8 5 4 5 7 6 4 3 3 13 13
15 9 6 7 6 7 8 8 12 12 13 12 10 9 10 11 9 8 7 8 8 6 4 5 4 7 9 4 8 9 4 7
15 14 9 2 2 6 7 9 9 9 10 10 8 6 5 5 4 4 6 7 7 7 7 6 5 6 8 10 12 10 13 9
12 8 7 5 3 5 7 10 11 13 11 10 8 6 4 4 5 5 5 6 6 7 7 7 7 7 8 9 10 9 12 10
17 15 10 7 7 3 5 8 10 12 12 11 10 9 6 5 6 4 4 6 7 8 8 7 7 6 7 9 10 12 14 15
19 16 13 10 5 11 11 10 12 14 14 12 12 10 10 9 8 7 7 8 8 7 5 5 5 5 6 8 11 13 12 15
Wind_Direction
166 173 178 181 182 183 184 184 189 197 206 213 218 221 224 228 235 238 237 233 233 237 245 248 249 248 223 217 221 225 235 236
163 167 170 174 181 189 190 192 198 205 212 221 227 232 237 244 249 254 255 250 246 249 249 250 255 258 257 239 232 235 240 244
166 172 176 182 186 188 191 192 195 198 202 209 217 222 237 260 260 259 259 262 260 255 256 258 255 257 258 256 246 239 243 244
160 166 168 177 186 184 185 186 190 199 202 199 199 203 210 224 264 267 257 262 264 264 258 259 261 256 256 257 249 241 243 247
138 156 173 180 173 168 164 153 171 189 196 198 191 181 197 167 213 264 269 269 273 267 263 256 248 250 255 253 251 252 248 245
86 150 178 174 162 145 150 153 155 133 137 165 182 184 189 152 212 242 244 250 265 267 266 265 261 256 256 256 256 252 253 249
103 103 119 127 129 128 125 125 112 102 101 99 110 115 111 122 132 127 129 182 246 249 263 272 268 261 261 262 263 261 255 251
109 112 114 119 120 121 120 116 108 101 92 84 80 76 74 73 67 3 327 319 290 280 271 258 264 270 269 268 267 267 267 267
107 103 108 111 110 105 103 99 97 90 80 66 54 47 37 29 14 358 348 335 320 305 299 295 280 269 268 259 264 266 262 265
116 112 107 104 102 99 96 93 88 76 66 56 46 33 23 13 3 349 337 326 320 314 309 300 292 296 290 290 286 286 260 259
116 113 105 99 94 92 88 82 71 61 48 34 23 15 6 358 349 339 331 328 325 321 319 317 302 295 292 288 285 280 277 270
118 109 101 92 88 85 78 70 59 41 30 20 9 2 354 348 341 332 328 326 323 321 315 309 297 296 297 290 285 284 284 282
117 110 96 83 72 65 70 52 41 27 19 9 2 359 352 342 331 330 330 320 313 313 309 305 313 315 308 295 286 281 269 286
121 108 93 77 68 67 69 54 30 18 8 6 5 3 359 350 337 330 336 324 316 316 316 301 292 316 302 298 304 295 231 315
141 128 109 81 68 61 38 26 23 8 2 1 3 4 3 358 343 327 335 334 319 319 332 333 305 299 309 293 305 287 329 305
151 130 99 62 41 33 37 25 25 357 342 349 354 13 31 35 24 18 2 343 338 335 322 320 306 289 307 259 272 279 285 295
168 154 172 67 34 347 357 22 1 334 340 328 332 357 24 35 25 11 357 352 339 330 324 325 307 290 292 298 304 295 274 268
186 187 154 159 219 235 337 351 344 335 325 303 304 316 336 355 348 344 353 353 346 338 331 320 308 297 289 283 282 281 286 287
199 183 179 200 219 255 311 323 320 307 303 301 300 299 306 330 329 337 356 357 344 331 322 314 303 294 296 297 293 286 289 290
205 199 190 192 237 304 287 289 296 297 294 290 288 291 296 297 300 307 316 323 320 313 286 280 279 292 298 302 301 298 291 283